Wind_Speed
41 41 42 43 43 44 44 44 45 45 46 46 48 49 49 49 49 49 48 49 49 48 48 49 49 48 48 49 49 49 50 50 50 49 49 49 50 51 51 51 52 52 52
43 43 43 44 44 45 45 45 45 46 46 47 48 49 50 51 51 50 50 50 50 49 49 50 51 51 51 51 51 51 50 51 51 51 51 50 51 51 52 53 53 53 54
44 44 45 46 46 46 47 46 47 47 47 47 48 48 49 51 51 52 52 52 52 52 52 52 52 52 52 52 52 52 51 51 51 52 51 52 52 52 52 53 54 54 54
46 46 46 46 47 48 48 48 49 49 49 49 50 50 51 51 51 51 52 53 53 53 53 53 53 52 52 53 53 52 52 52 52 52 52 52 53 52 52 53 53 53 53
46 47 47 47 47 48 49 49 50 51 51 51 52 52 52 53 53 53 54 54 54 54 54 54 54 53 53 54 53 53 53 53 53 54 54 53 53 53 53 53 53 53 53
46 47 48 48 49 49 50 50 51 52 52 53 53 53 54 55 55 55 55 55 55 55 54 55 55 54 54 54 54 54 54 54 55 55 55 55 54 54 54 54 54 53 53
47 47 48 49 49 50 51 51 52 53 53 53 54 55 55 56 56 56 57 57 57 57 56 56 56 55 54 54 54 54 54 54 55 55 55 55 54 54 54 54 53 53 53
49 49 49 49 50 51 52 52 53 53 54 54 55 55 56 57 57 57 57 58 57 57 57 56 56 56 56 55 55 55 54 55 55 55 55 54 54 53 53 52 52 52 51
49 49 50 50 50 51 52 52 53 53 54 54 55 55 56 56 57 57 57 57 57 57 57 56 56 56 57 56 56 55 54 54 54 55 54 53 53 53 53 53 52 51 50
48 48 49 50 50 51 51 52 52 52 52 52 52 53 54 54 55 55 55 56 56 56 56 56 56 56 56 56 56 56 55 54 53 53 53 52 52 52 52 52 52 51 50
47 48 48 49 49 49 49 50 50 50 50 50 49 49 50 50 51 52 52 53 53 54 54 54 54 55 55 54 54 54 53 53 52 52 52 52 51 51 51 50 50 49 49
46 46 47 47 48 48 48 48 48 48 48 48 47 47 47 47 48 49 50 50 51 51 51 51 51 51 51 51 52 52 51 50 50 50 50 50 50 49 49 48 48 47 48
44 45 46 47 47 47 47 47 46 46 46 46 45 45 46 45 45 46 46 47 48 48 48 47 47 48 47 48 48 49 48 48 48 48 49 49 48 48 49 49 49 49 49
43 43 44 44 44 44 45 45 45 45 45 45 44 44 44 43 44 44 45 45 46 46 46 45 45 45 45 46 47 47 48 48 48 48 48 48 48 49 49 49 49 48 48
42 42 42 42 42 42 42 43 43 43 43 44 44 44 44 44 44 44 44 44 44 44 44 44 45 45 45 46 47 47 48 49 49 48 48 48 48 48 48 48 47 47 47
42 42 42 42 42 42 42 41 41 41 41 41 41 42 42 43 43 42 42 42 43 43 43 43 43 44 45 45 46 47 47 48 48 48 48 47 47 47 47 46 46 46 46
41 41 42 41 41 41 41 41 40 40 40 40 40 40 40 40 41 41 41 41 41 42 42 42 43 43 43 44 44 45 46 46 46 46 46 46 46 46 46 46 46 45 45
41 41 41 41 41 41 40 40 40 39 39 38 38 38 38 38 38 39 39 39 39 40 41 41 42 42 42 42 43 44 44 45 45 45 45 45 45 45 45 45 45 44 44
40 40 41 40 40 40 39 39 38 38 37 37 37 37 36 37 37 37 37 38 38 38 39 40 40 40 41 41 41 42 42 43 44 44 44 44 45 45 44 44 44 44 43
41 41 41 40 40 39 39 38 37 37 36 36 36 36 36 36 36 37 37 38 38 38 38 39 38 39 39 40 40 40 41 41 42 42 43 43 43 44 44 43 43 43 42
40 41 41 41 40 40 39 38 37 37 37 37 36 36 37 37 37 37 38 38 38 38 38 38 38 38 38 38 39 39 40 41 41 42 42 42 43 43 43 42 42 42 42
39 39 39 39 39 39 38 38 37 37 37 37 37 38 38 38 39 39 39 39 38 38 37 37 37 37 38 38 39 40 40 41 42 42 42 42 42 42 41 41 41 41 41
37 37 37 37 37 37 37 37 37 37 38 38 38 39 39 39 39 39 39 38 38 37 37 37 37 37 38 38 39 39 40 41 41 41 41 40 40 40 39 39 39 39 39
36 36 36 36 35 35 35 35 36 37 37 37 38 39 40 40 39 39 39 38 38 38 38 38 37 37 38 38 38 39 39 40 40 40 40 40 39 39 38 38 38 38 39
35 35 35 34 34 34 34 35 35 36 36 37 37 38 38 39 38 38 38 38 38 38 38 38 37 37 37 38 38 38 38 39 39 39 39 39 39 38 38 37 37 37 38
35 34 34 34 33 33 33 33 33 34 35 36 36 36 37 37 38 38 38 38 38 38 38 38 38 38 38 38 38 38 37 37 37 37 37 37 37 36 36 36 36 37 37
Wind_Direction
267 266 266 265 265 264 263 262 263 262 261 260 260 260 260 260 260 261 262 264 265 266 266 266 267 268 269 269 268 268 269 270 269 269 271 272 273 274 275 275 276 276 277
268 268 268 266 265 265 265 264 264 263 263 262 262 261 261 260 260 261 262 263 264 265 266 266 267 268 269 269 269 269 269 270 271 271 271 271 272 274 274 275 275 275 276
269 269 268 267 266 266 265 265 265 264 264 264 263 263 263 262 262 261 262 262 264 265 266 267 268 268 268 268 268 269 269 270 271 272 271 271 272 273 274 275 275 275 276
269 269 269 268 267 266 265 265 265 265 265 265 265 264 264 264 263 263 263 263 264 265 266 268 268 269 269 268 268 269 270 270 271 272 272 272 272 273 274 274 274 275 275
270 270 269 268 267 266 266 266 266 266 265 265 265 264 264 264 263 263 264 265 265 266 266 267 267 268 268 268 268 269 269 270 271 271 272 272 273 274 274 274 273 274 273
271 271 270 269 268 268 268 268 268 267 266 266 265 265 264 264 264 264 264 265 265 265 266 266 267 268 268 268 268 269 269 269 270 270 270 271 272 273 273 273 274 274 273
272 272 271 271 270 270 269 269 268 268 267 267 266 265 264 265 265 264 264 265 266 265 265 266 267 267 268 267 268 268 269 269 269 270 270 271 271 272 273 273 273 273 272
272 272 272 271 271 270 270 270 269 268 267 266 266 266 265 264 264 264 264 265 266 266 266 266 267 268 268 268 268 268 269 268 268 268 269 270 271 271 272 273 272 272 272
273 273 273 272 271 270 270 270 270 269 268 268 268 267 266 265 265 265 264 265 266 266 266 266 267 268 268 268 268 269 269 268 268 269 269 270 270 271 271 272 272 272 272
274 273 272 272 271 270 270 270 270 270 269 269 268 268 267 266 265 265 265 265 266 266 266 267 268 268 269 269 269 269 269 269 269 269 269 270 270 271 271 271 272 272 271
275 274 273 272 272 271 270 270 270 270 269 269 269 268 268 267 266 266 265 265 265 266 266 266 267 268 268 269 269 269 269 269 268 269 269 270 271 271 272 272 272 272 271
276 275 274 274 274 273 272 271 270 270 270 270 269 269 268 268 267 266 265 265 265 266 266 266 266 266 268 268 268 268 268 268 269 269 269 270 270 271 271 271 272 271 271
277 276 275 275 275 274 274 272 271 271 270 270 269 269 269 269 267 266 266 265 265 265 266 266 266 266 267 268 268 268 268 268 269 270 270 269 269 270 270 271 272 272 272
278 277 277 277 276 275 274 273 272 270 270 269 269 269 269 269 268 267 266 266 266 265 265 265 266 266 267 268 268 267 268 269 269 270 270 270 270 270 270 270 270 270 271
279 278 277 277 276 276 275 274 273 271 271 270 269 268 268 268 268 268 268 266 266 265 265 265 266 267 268 269 269 268 269 270 270 270 270 270 271 271 271 270 269 270 270
279 279 278 277 277 276 275 274 273 272 271 271 270 269 269 269 268 267 267 267 267 267 267 267 268 268 269 269 269 269 269 270 270 270 270 270 270 271 271 270 270 269 270
280 279 279 278 277 277 275 274 272 271 271 271 270 270 269 269 268 267 267 267 267 268 268 269 270 270 270 270 270 269 270 269 269 269 270 270 270 270 270 270 270 269 269
280 279 279 278 277 276 275 274 271 270 269 269 269 269 268 268 268 267 267 267 268 268 269 270 270 270 271 271 271 271 270 269 268 269 269 270 270 271 270 270 269 269 268
279 279 279 278 277 276 275 272 271 270 269 268 268 267 267 268 268 267 267 268 269 269 270 271 271 271 271 272 272 272 271 270 269 270 270 270 270 270 270 270 269 268 267
279 279 278 276 275 274 273 271 270 270 269 269 268 268 267 267 268 268 268 269 269 270 271 272 272 272 272 272 273 273 272 271 271 271 271 271 270 270 270 269 268 267 266
279 279 277 276 274 272 271 270 270 269 269 269 269 269 269 269 269 269 269 270 270 271 271 272 273 273 273 273 273 273 273 273 273 272 271 271 271 270 270 269 268 267 266
280 279 278 277 275 272 271 270 270 270 270 270 269 269 269 270 270 270 269 269 270 270 271 273 273 274 274 275 275 275 274 274 274 274 273 272 271 270 270 268 267 266 266
282 280 278 277 275 272 270 270 270 270 270 270 270 269 269 270 270 269 268 268 268 269 271 273 274 274 274 275 275 275 275 274 273 273 273 272 271 270 269 267 266 265 266
283 281 279 277 275 273 271 271 271 270 270 270 270 271 270 270 270 268 267 267 267 268 270 272 273 273 274 275 275 275 274 274 273 272 271 271 271 270 268 267 265 265 266
284 281 279 277 275 273 273 272 271 271 270 271 271 271 270 269 269 268 267 267 267 269 270 271 272 273 274 275 276 276 275 274 273 272 271 271 271 270 268 266 265 265 266
284 282 279 276 274 274 273 273 273 273 273 273 272 271 270 269 269 268 267 267 268 270 270 271 272 272 273 274 275 275 275 274 273 272 272 271 271 269 268 266 265 265 266
Height
5604 5604 5604 5604 5605 5605 5606 5607 5608 5609 5610 5611 5612 5613 5615 5616 5618 5619 5621 5622 5623 5624 5625 5626 5627 5628 5628 5628 5629 5629 5629 5629 5630 5632 5633 5632 5631 5630 5629 5629 5628 5627 5626
5592 5592 5592 5593 5593 5594 5594 5595 5596 5597 5597 5598 5599 5601 5602 5603 5605 5606 5608 5609 5610 5611 5612 5613 5614 5614 5615 5615 5615 5615 5615 5615 5616 5617 5618 5618 5617 5616 5616 5614 5613 5613 5612
5580 5580 5580 5581 5581 5582 5582 5583 5583 5584 5585 5585 5586 5588 5589 5590 5591 5593 5594 5595 5596 5597 5598 5599 5599 5600 5600 5600 5601 5601 5601 5601 5601 5601 5603 5603 5603 5602 5601 5600 5598 5598 5597
5568 5568 5568 5568 5569 5569 5569 5570 5570 5571 5571 5572 5573 5574 5575 5576 5577 5578 5579 5581 5582 5583 5583 5584 5584 5585 5585 5585 5586 5586 5586 5586 5586 5586 5587 5588 5588 5587 5586 5585 5584 5583 5582
5556 5556 5556 5555 5555 5555 5556 5556 5556 5557 5557 5558 5558 5559 5560 5561 5562 5563 5564 5565 5567 5568 5568 5569 5569 5569 5570 5570 5571 5571 5571 5571 5571 5571 5572 5572 5572 5572 5571 5570 5569 5568 5568
5543 5543 5542 5542 5542 5541 5541 5541 5542 5542 5542 5543 5543 5544 5545 5546 5546 5547 5548 5550 5551 5552 5553 5553 5554 5554 5554 5555 5555 5555 5556 5556 5556 5556 5556 5556 5557 5556 5555 5554 5553 5553 5554
5530 5529 5528 5527 5527 5527 5526 5526 5526 5527 5527 5527 5527 5528 5529 5530 5530 5531 5532 5533 5535 5536 5537 5538 5538 5539 5539 5539 5540 5540 5540 5540 5540 5540 5540 5541 5541 5541 5540 5539 5538 5537 5538
5516 5515 5514 5513 5512 5512 5511 5511 5511 5511 5511 5511 5511 5512 5513 5513 5514 5514 5515 5516 5518 5519 5520 5521 5522 5523 5523 5523 5524 5524 5525 5524 5524 5524 5525 5525 5525 5524 5524 5523 5523 5523 5523
5502 5500 5499 5498 5497 5496 5496 5495 5495 5495 5495 5495 5495 5495 5495 5496 5496 5497 5498 5500 5501 5503 5504 5504 5505 5506 5507 5507 5507 5509 5509 5509 5508 5508 5508 5509 5509 5509 5508 5508 5508 5508 5509
5488 5486 5485 5483 5482 5481 5481 5480 5479 5479 5479 5479 5479 5478 5479 5479 5480 5480 5481 5483 5485 5486 5487 5488 5489 5489 5490 5490 5490 5491 5492 5493 5492 5492 5492 5493 5493 5493 5493 5493 5493 5493 5493
5474 5472 5470 5469 5467 5466 5465 5465 5464 5464 5464 5464 5464 5464 5463 5463 5464 5464 5465 5466 5468 5469 5470 5471 5472 5472 5473 5474 5474 5475 5475 5476 5476 5476 5476 5477 5477 5478 5478 5478 5478 5478 5478
5460 5458 5456 5455 5453 5452 5451 5450 5449 5449 5449 5449 5449 5449 5449 5448 5449 5449 5450 5451 5451 5453 5454 5455 5456 5457 5457 5458 5458 5459 5459 5460 5460 5460 5461 5461 5462 5463 5463 5463 5463 5463 5464
5446 5444 5443 5441 5439 5438 5436 5435 5435 5434 5434 5434 5434 5435 5435 5434 5434 5434 5435 5436 5437 5438 5439 5440 5441 5442 5442 5443 5444 5444 5444 5444 5445 5445 5446 5447 5447 5447 5448 5448 5448 5448 5448
5433 5431 5429 5427 5426 5424 5423 5422 5421 5421 5420 5420 5420 5421 5421 5421 5420 5421 5421 5422 5423 5423 5424 5426 5426 5427 5428 5428 5429 5429 5430 5430 5430 5431 5431 5432 5432 5433 5433 5433 5434 5434 5434
5420 5418 5416 5414 5413 5412 5410 5409 5408 5408 5407 5407 5407 5407 5407 5408 5408 5408 5408 5409 5409 5410 5411 5412 5413 5413 5414 5414 5415 5415 5415 5415 5416 5416 5416 5417 5417 5417 5417 5418 5419 5419 5420
5407 5405 5403 5402 5400 5399 5398 5397 5395 5395 5394 5393 5393 5393 5394 5394 5394 5395 5395 5396 5396 5397 5397 5398 5399 5399 5400 5400 5401 5401 5401 5401 5401 5401 5402 5402 5403 5403 5403 5403 5404 5405 5406
5394 5392 5391 5389 5388 5386 5385 5384 5384 5383 5382 5381 5381 5381 5381 5381 5381 5382 5382 5383 5383 5383 5384 5385 5385 5386 5386 5386 5386 5386 5386 5386 5387 5387 5387 5388 5388 5388 5389 5389 5390 5391 5391
5381 5379 5378 5376 5375 5374 5372 5371 5371 5370 5370 5370 5369 5369 5368 5369 5369 5369 5369 5370 5371 5371 5371 5372 5372 5372 5372 5372 5372 5372 5372 5372 5372 5373 5373 5374 5374 5374 5375 5375 5375 5376 5377
5368 5366 5365 5363 5362 5361 5360 5359 5358 5358 5358 5358 5358 5358 5357 5357 5357 5357 5357 5358 5359 5359 5359 5359 5359 5359 5359 5358 5358 5358 5358 5358 5358 5359 5359 5360 5360 5360 5361 5361 5361 5362 5364
5355 5353 5351 5350 5349 5348 5347 5346 5346 5346 5346 5346 5346 5346 5346 5346 5346 5346 5346 5346 5346 5347 5346 5346 5346 5346 5346 5345 5345 5345 5345 5345 5345 5345 5346 5346 5346 5347 5347 5347 5348 5349 5350
5342 5340 5339 5337 5336 5335 5334 5334 5334 5334 5334 5334 5334 5334 5333 5334 5334 5334 5334 5334 5334 5334 5334 5334 5334 5333 5333 5332 5332 5332 5332 5332 5332 5332 5332 5333 5333 5333 5334 5334 5335 5336 5337
5329 5327 5326 5324 5323 5322 5322 5322 5321 5321 5321 5321 5322 5322 5321 5321 5322 5322 5321 5322 5321 5321 5321 5322 5322 5321 5321 5320 5320 5320 5319 5319 5319 5319 5319 5319 5320 5320 5320 5321 5322 5323 5324
5317 5315 5313 5312 5311 5310 5310 5309 5309 5309 5309 5309 5309 5309 5309 5309 5309 5308 5308 5308 5309 5309 5309 5309 5309 5309 5308 5308 5307 5307 5307 5307 5306 5306 5306 5306 5307 5307 5308 5309 5310 5311 5311
5304 5303 5301 5300 5299 5298 5298 5297 5297 5297 5297 5296 5296 5296 5296 5296 5295 5295 5295 5296 5296 5297 5297 5297 5297 5296 5296 5295 5295 5294 5294 5293 5293 5293 5293 5294 5294 5295 5296 5297 5297 5298 5299
5293 5291 5289 5288 5287 5287 5286 5285 5285 5284 5284 5284 5284 5283 5283 5283 5283 5283 5283 5283 5284 5284 5284 5284 5284 5284 5283 5283 5282 5282 5281 5281 5281 5281 5281 5281 5282 5282 5283 5284 5285 5286 5287
5281 5279 5278 5276 5276 5275 5274 5274 5273 5273 5272 5272 5271 5271 5271 5270 5270 5270 5271 5271 5271 5272 5272 5272 5272 5271 5271 5270 5270 5270 5269 5269 5269 5269 5269 5269 5270 5270 5271 5272 5273 5274 5275